Details From LCLK - Larnaca
To LXGB - Gibraltar
Flight Number -
Tags Generated
Created
Modified
Stats Distance 1,909 nm / 3,535 km
Max Altitude 0 ft / 0 m
Waypoints 7
Social Downloads 2
Likes 0
Share VATSIM

Download

Looking for another format? Having issues loading an existing format? Contact us
Advertisement - Login to hide

Notes

Generated

Route

LCLK RESTI BELIX NSY96 BIZ GALTO LXGB

ID Type Via Altitude Latitude Longitude Leg Dist Tot Dist Heading (true) Name
O LCLK APT - 0 ft / 0 m 34.86568˚ 33.61326˚ - 0 nm - -
RESTI FIX - 0 ft / 0 m 36.46778˚ 24.43972˚ 457 nm 457 nm 285° / 279° -
BELIX FIX - 0 ft / 0 m 36.96667˚ 19.00000˚ 263 nm 721 nm 278° / 275° -
NSY96 FIX - 0 ft / 0 m 37.17346˚ 14.70794˚ 206 nm 927 nm 275° / 272° -
BIZ VOR - 0 ft / 0 m 37.23528˚ 9.76556˚ 236 nm 1163 nm 272° / 269° BIZERTE VOR-DME
GALTO FIX - 0 ft / 0 m 35.83333˚ -5.14361˚ 723 nm 1887 nm 268° / 259° -
O LXGB APT - 0 ft / 0 m 36.15080˚ -5.35977˚ 21 nm 1908 nm 331° / 331° -

Altitude Profile

Advertisement - Login to hide

Weather


0- 5 10 15 20 25 30 35+ Temperature / ° C

Clouds and Precipitation
Forecast for 2018-05-23 00:00 UTC. Updated 3 hours ago

Ground ~20,000 ft ~40,000 ft Winds

LCLK

Details ICAO LCLK (LCA)
Name Larnaca
Region Cyprus
Timezone Asia/Nicosia (UTC+3.0)
Stats Elevation 8 ft / 2 m (AMSL)
Location 34.875115° 33.624832°
Runways 1
Magnetic Variation 5.028° E

METAR

LCLK 230200Z 30004KT CAVOK 21/13 Q1011 NOSIG

Decode

TAF

TAF LCLK 222330Z 2300/2324 35006KT CAVOK BECMG 2307/2310 14010KT BECMG 2311/2313 21014KT BECMG 2316/2318 25006KT

Decode

Departure Runways

ID Width Length Bearing (true) Bearing (mag) Surface Threshold Offset Overrun Length
04 148 ft / 45 m 9,771 ft / 2,978 m 45.15° 40.12° Asphalt 0 ft / 0 m 210 ft / 64 m
22 148 ft / 45 m 9,771 ft / 2,978 m 225.17° 220.14° Asphalt 575 ft / 175 m 0 ft / 0 m

LXGB

Details ICAO LXGB (GIB)
Name Gibraltar
Region Gibralter
Timezone Europe/Gibraltar (UTC+2.0)
Stats Elevation 15 ft / 5 m (AMSL)
Location 36.151209° -5.349664°
Runways 1
Magnetic Variation 1.073° W

METAR

LXGB 230150Z AUTO 07003KT 9999 // NCD 17/15 Q1014

Decode

TAF

Not found

Destination Runways

ID Width Length Bearing (true) Bearing (mag) Surface Threshold Offset Overrun Length
27 151 ft / 46 m 5,992 ft / 1,826 m 267.56° 268.63° Asphalt 367 ft / 112 m 89 ft / 27 m
9 151 ft / 46 m 5,992 ft / 1,826 m 87.54° 88.61° Asphalt 299 ft / 91 m 52 ft / 16 m